Weather History for KMLI - June, 2014

Change the Weather History Date:

Sunday, June 15, 2014

  Actual Average Record
Temperature  
Mean Temperature 74 °F 72 °F  
Max Temperature 85 °F 82 °F 94 °F (1894)
Min Temperature 63 °F 61 °F 45 °F (1917)
Degree Days  
Heating Degree Days 0 0  
Month to date heating degree days 4 17  
Since 1 June heating degree days 4 17  
Since 1 July heating degree days 7317 6201  
Cooling Degree Days 9 7  
Month to date cooling degree days 59 82  
Year to date cooling degree days 164 158  
Since 1 June cooling degree days 59 82  
Growing Degree Days 23 (Base 50)    
Moisture  
Dew Point 58 °F    
Average Humidity 59    
Maximum Humidity 73    
Minimum Humidity 44    
Precipitation  
Precipitation 0.00 in 0.15 in 1.68 in (1982)
Month to date precipitation 1.88 2.23  
Year to date precipitation 13.44 16.09  
Snow  
Snow 0.00 in 0.00 in - ()
Month to date snowfall 0.0 0.0  
Since 1 June snowfall 0.0 0.0  
Since 1 July snowfall 65.1 31.6  
Snow Depth 0.00 in    
Sea Level Pressure  
Sea Level Pressure 29.83 in    
Wind  
Wind Speed 13 mph (SSW)    
Max Wind Speed 25 mph    
Max Gust Speed 36 mph    
Visibility 10 miles    
Events      
T = Trace of Precipitation, MM = Missing Value Source: NWS Daily Summary

Daily Weather History Graph

Daily Weather History Graph

Search for Another Location

Airport or City:

Trip Planner

Search our weather history database for the weather conditions in past years. The results will help you decide how hot, cold, wet, or windy it might be!

Date:

Astronomy

Jun. 15, 2014 Rise Set
Actual Time 5:27 AM CDT 8:37 PM CDT
Civil Twilight 4:53 AM CDT 9:11 PM CDT
Nautical Twilight 4:10 AM CDT 9:54 PM CDT
Astronomical Twilight 3:18 AM CDT 10:47 PM CDT
Moon 10:45 PM CDT (6/15) 8:22 AM CDT (6/15)
Length of Visible Light 16h 17m
Length of Day
15h 09m
Waning Gibbous, 91% of the Moon is Illuminated
Jun 15
Waning Gibbous
Jun 19
Last Quarter
Jun 27
New
Jul 5
First Quarter
Jul 12
Full

Hourly Weather History & Observations

Time (CDT) Temp. Heat Index Dew Point Humidity Pressure Visibility Wind Dir Wind Speed Gust Speed Precip Events Conditions
12:52 AM 64.0 °F - 51.1 °F 63% 29.87 in 10.0 mi SE 10.4 mph - N/A   Clear
1:52 AM 64.0 °F - 52.0 °F 65% 29.84 in 10.0 mi SSE 10.4 mph 19.6 mph N/A   Clear
2:52 AM 64.0 °F - 52.0 °F 65% 29.84 in 10.0 mi SSE 12.7 mph - N/A   Clear
3:52 AM 63.0 °F - 52.0 °F 67% 29.84 in 10.0 mi SSE 13.8 mph 21.9 mph N/A   Clear
4:52 AM 63.0 °F - 52.0 °F 67% 29.82 in 10.0 mi SSE 15.0 mph - N/A   Clear
5:52 AM 64.0 °F - 52.0 °F 65% 29.82 in 10.0 mi SSE 12.7 mph - N/A   Clear
6:52 AM 66.0 °F - 54.0 °F 65% 29.81 in 10.0 mi SSE 11.5 mph 21.9 mph N/A   Scattered Clouds
7:52 AM 69.1 °F - 55.9 °F 63% 29.80 in 10.0 mi South 13.8 mph 23.0 mph N/A   Partly Cloudy
8:52 AM 71.1 °F - 57.9 °F 63% 29.80 in 10.0 mi South 15.0 mph 23.0 mph N/A   Overcast
9:52 AM 73.0 °F - 60.1 °F 64% 29.76 in 10.0 mi South 20.7 mph 29.9 mph N/A   Clear
10:52 AM 77.0 °F - 63.0 °F 62% 29.68 in 10.0 mi SSE 16.1 mph 31.1 mph N/A   Clear
11:52 AM 79.0 °F - 64.0 °F 60% 29.74 in 10.0 mi South 15.0 mph 25.3 mph N/A   Clear
12:52 PM 82.0 °F 83.8 °F 64.9 °F 56% 29.78 in 10.0 mi SW 18.4 mph 24.2 mph N/A   Clear
1:52 PM 82.0 °F 83.0 °F 62.1 °F 51% 29.79 in 10.0 mi SW 18.4 mph 25.3 mph N/A   Partly Cloudy
2:52 PM 84.0 °F 84.4 °F 61.0 °F 46% 29.80 in 10.0 mi West 19.6 mph 24.2 mph N/A   Scattered Clouds
3:52 PM 84.2 °F 85.0 °F 62.6 °F 48% 29.82 in 10.0 mi SSW 19.6 mph 25.3 mph N/A   Mostly Cloudy
4:52 PM 82.0 °F 83.1 °F 63.0 °F 52% 29.83 in 10.0 mi West 13.8 mph - N/A   Mostly Cloudy
5:52 PM 82.0 °F 82.4 °F 60.1 °F 47% 29.84 in 10.0 mi West 10.4 mph - N/A   Partly Cloudy
6:52 PM 80.1 °F 81.1 °F 61.0 °F 52% 29.86 in 10.0 mi WSW 10.4 mph - N/A   Clear
7:52 PM 77.0 °F - 61.0 °F 58% 29.87 in 10.0 mi SW 6.9 mph - N/A   Clear
8:52 PM 73.9 °F - 60.1 °F 62% 29.88 in 10.0 mi SW 5.8 mph - N/A   Clear
9:52 PM 71.1 °F - 60.1 °F 68% 29.91 in 10.0 mi SSW 5.8 mph - N/A   Clear
10:52 PM 71.1 °F - 61.0 °F 70% 29.93 in 10.0 mi SSW 8.1 mph - N/A   Clear
11:52 PM 70.0 °F - 60.1 °F 71% 29.95 in 10.0 mi SW 8.1 mph - N/A   Clear